Overview Statistics Trail Chart Weather Telemetry Raw packets
 

This is the latest recevied weather packets stored in our database for station/object KI5NXU. If no packets are shown the sender has not sent any weather packets the latest 10 day(s).

<< 82 83 84 85 86 87 88 >>
Time Temp. Humidity Pressure Rain* Wind** Luminosity Snow
1787781062 38.89° C 40% 1014 hPa 0 mm - 329 W/m² -
1787780761 37.78° C 41% 1013.8 hPa 0 mm - 573 W/m² -
1787780461 37.22° C 43% 1014.1 hPa 0 mm - 257 W/m² -
1787780157 37.78° C 42% 1013.9 hPa 0 mm - 289 W/m² -
1787779853 37.78° C 43% 1014.1 hPa 0 mm - 286 W/m² -
1787779552 37.78° C 43% 1014.1 hPa 0 mm - 354 W/m² -
1787779247 37.22° C 44% 1014 hPa 0 mm - 421 W/m² -
1787778947 37.78° C 44% 1014.2 hPa 0 mm - 386 W/m² -
1787778642 37.78° C 43% 1014.2 hPa 0 mm - 561 W/m² -
1787778337 37.22° C 43% 1014.2 hPa 0 mm - 485 W/m² -
1787778035 37.22° C 45% 1014.5 hPa 0 mm - 673 W/m² -
1787777733 37.22° C 44% 1014.6 hPa 0 mm - 377 W/m² -
1787777430 37.78° C 43% 1014.4 hPa 0 mm - 441 W/m² -
1787777130 37.78° C 42% 1014.7 hPa 0 mm - 678 W/m² -
1787776829 37.22° C 43% 1014.9 hPa 0 mm - 637 W/m² -
1787776528 37.22° C 45% 1014.8 hPa 0 mm - 611 W/m² -
1787776226 36.67° C 45% 1015 hPa 0 mm - 645 W/m² -
1787775920 36.67° C 47% 1015.2 hPa 0 mm - 256 W/m² -
1787775615 36.11° C 47% 1015.2 hPa 0 mm - 719 W/m² -
1787775314 35.56° C 48% 1015.2 hPa 0 mm - 513 W/m² -
1787775008 36.11° C 48% 1015.1 hPa 0 mm - 344 W/m² -
1787774707 35° C 50% 1015.2 hPa 0 mm - 417 W/m² -
1787774407 34.44° C 51% 1015.3 hPa 0 mm - 276 W/m² -
1787774101 34.44° C 52% 1015.4 hPa 0 mm - 300 W/m² -
1787773799 33.89° C 52% 1015.4 hPa 0 mm - 269 W/m² -

* Rain latest hour (hover to see other rain measurements)
** Current wind speed in m/s (hover to see current wind gust speed)